logo tempoitalia

Diretta Meteo Adana-Sakirpasa, Turchialunedì 31 agosto ore 08:20

Mappa
Sereno 29 °C Sereno 24 Ore: T.min 23 T.max 34
Ponente Est/Nord-Est Km/h 7.4 Punto di rugiada: 21 °C Umidità: 62% Visibilità: 10 Km
Il sole sorge alle: 06:08 Il sole tramonta alle: 19:09
31 Agosto 2026 08:20 tempo osservato: Sereno Sereno 29 62 1007 vento: Nord E/NE 7.4
31 Agosto 2026 07:50 tempo osservato: Sereno Sereno 28 65 1007 vento: Nord NE 7.4
31 Agosto 2026 07:20 tempo osservato: Sereno Sereno 27 69 1007 vento: Nord N 0
31 Agosto 2026 06:50 tempo osservato: Sereno Sereno 24 83 1007 vento: Nord N 5.5
31 Agosto 2026 06:20 tempo osservato: Sereno Sereno 23 83 1007 vento: Nord N 0
31 Agosto 2026 05:50 tempo osservato: Sereno Sereno 23 83 1007 vento: Nord N 0
31 Agosto 2026 05:20 tempo osservato: Sereno Sereno 23 83 1006 vento: Nord N 0
31 Agosto 2026 04:50 tempo osservato: Sereno Sereno 24 83 1006 vento: Nord N 0
31 Agosto 2026 04:20 tempo osservato: Sereno Sereno 24 78 1006 vento: Nord N 5.5
31 Agosto 2026 03:50 tempo osservato: Sereno Sereno 24 78 1006 vento: Nord NE 9.3
31 Agosto 2026 03:20 tempo osservato: Sereno Sereno 25 73 1006 vento: Nord N 5.5
31 Agosto 2026 02:50 tempo osservato: Sereno Sereno 24 78 1006 vento: Nord NE 9.3
31 Agosto 2026 02:20 tempo osservato: Sereno Sereno 24 78 1006 vento: Nord N/NE 9.3
31 Agosto 2026 01:50 tempo osservato: Sereno Sereno 25 73 1006 vento: Nord NE 9.3
31 Agosto 2026 01:20 tempo osservato: Sereno Sereno 26 69 1006 vento: Nord E/NE 11.1
31 Agosto 2026 00:50 tempo osservato: Sereno Sereno 26 69 1006 vento: Nord E/NE 11.1
31 Agosto 2026 00:20 tempo osservato: Sereno Sereno 26 69 1006 vento: Nord NE 9.3
30 Agosto 2026 23:50 tempo osservato: Sereno Sereno 27 65 1006 vento: Nord E 7.4
30 Agosto 2026 23:20 tempo osservato: Sereno Sereno 27 65 1006 vento: Nord N 5.5
30 Agosto 2026 22:50 tempo osservato: Sereno Sereno 27 69 1006 vento: Nord E 9.3
30 Agosto 2026 22:20 tempo osservato: Sereno Sereno 27 65 1006 vento: Nord E 7.4
30 Agosto 2026 21:50 tempo osservato: Sereno Sereno 27 65 1006 vento: Nord E/SE 7.4
30 Agosto 2026 21:20 tempo osservato: Sereno Sereno 27 65 1006 vento: Nord N 5.5
30 Agosto 2026 20:50 tempo osservato: Sereno Sereno 27 61 1005 vento: Nord N 5.5
30 Agosto 2026 20:20 tempo osservato: Sereno Sereno 27 61 1005 vento: Nord N 3.7
30 Agosto 2026 19:50 tempo osservato: Sereno Sereno 27 61 1005 vento: Nord S/SO 9.3
30 Agosto 2026 19:20 tempo osservato: Sereno Sereno 28 54 1004 vento: Nord S/SO 11.1
30 Agosto 2026 18:50 tempo osservato: Sereno Sereno 29 48 1004 vento: Nord S/SO 11.1
30 Agosto 2026 18:20 tempo osservato: Sereno Sereno 30 48 1004 vento: Nord S/SO 18.5
30 Agosto 2026 17:50 tempo osservato: Sereno Sereno 31 43 1004 vento: Nord S/SO 22.2
30 Agosto 2026 17:20 tempo osservato: Sereno Sereno 31 43 1003 vento: Nord SO 25.9
30 Agosto 2026 16:50 tempo osservato: Sereno Sereno 32 40 1003 vento: Nord SO 24
30 Agosto 2026 16:20 tempo osservato: Sereno Sereno 32 40 1003 vento: Nord SO 25.9
30 Agosto 2026 15:50 tempo osservato: Sereno Sereno 33 41 1003 vento: Nord S/SO 25.9
30 Agosto 2026 15:20 tempo osservato: Sereno Sereno 34 36 1003 vento: Nord SO 24
30 Agosto 2026 14:50 tempo osservato: Sereno Sereno 34 34 1003 vento: Nord SO 16.7
30 Agosto 2026 14:20 tempo osservato: Sereno Sereno 34 34 1003 vento: Nord S/SO 9.3
30 Agosto 2026 13:50 tempo osservato: Sereno Sereno 34 32 1003 vento: Nord SO 11.1
30 Agosto 2026 13:20 tempo osservato: Sereno Sereno 33 36 1003 vento: Nord N 7.4
30 Agosto 2026 12:50 tempo osservato: Sereno Sereno 33 36 1004 vento: Nord N 9.3
30 Agosto 2026 12:20 tempo osservato: Sereno Sereno 32 38 1004 vento: Nord N 7.4
30 Agosto 2026 11:50 tempo osservato: Sereno Sereno 31 43 1004 vento: Nord N 7.4
30 Agosto 2026 11:20 tempo osservato: Sereno Sereno 31 43 1004 vento: Nord SE 9.3
30 Agosto 2026 10:50 tempo osservato: Sereno Sereno 30 45 1005 vento: Nord N 5.5
30 Agosto 2026 10:20 tempo osservato: Sereno Sereno 29 45 1004 vento: Nord S 9.3
30 Agosto 2026 09:50 tempo osservato: Sereno Sereno 29 51 1004 vento: Nord SE 9.3
30 Agosto 2026 09:20 tempo osservato: Sereno Sereno 28 51 1004 vento: Nord SE 7.4
30 Agosto 2026 08:50 tempo osservato: Sereno Sereno 28 54 1004 vento: Nord E/SE 7.4